Hourly Data Report for July 04, 2021

LONDON CS
ONTARIO
Current Station Operator: ECCC - MSC

43°02'00.000" N
81°09'00.000" W
278.00 m
6144478
71622
WSN

Download Data

Hourly Data (July 2021)
Hourly Data Report for July 4, 2021
TIME
LST
Temp Definition
°C
Dew Point Definition
°C
Rel Hum Definition
%
Precip. Amount Definition
mm

Wind Dir Definition
10's deg

Wind Spd Definition
km/h
Visibility Definition
km
Stn Press Definition
kPa
Hmdx Definition


Wind Chill Definition


Weather Definition


00:00 15.6 13.7 89 0.0       97.85     LegendNANA
01:00 14.8 13.6 93 0.0       97.78     LegendNANA
02:00 14.9 13.7 92 0.0       97.80     LegendNANA
03:00 14.3 13.3 94 0.0       97.78     LegendNANA
04:00 13.9 12.9 94 0.0       97.82     LegendNANA
05:00 14.0 13.1 94 0.0       97.86     LegendNANA
06:00 15.3 13.7 90 0.0       97.91     LegendNANA
07:00 17.6 14.9 84 0.0       97.98     LegendNANA
08:00 19.9 16.0 78 0.0       98.02     LegendNANA
09:00 21.6 16.2 71 0.0       98.05 26   LegendNANA
10:00 23.4 15.9 63 0.0       98.06 28   LegendNANA
11:00 24.8 16.1 58 0.0       98.05 29   LegendNANA
12:00 25.8 16.6 57 0.0       98.07 31   LegendNANA
13:00 26.3 16.0 53 0.0       98.08 31   LegendNANA
14:00 26.7 15.4 50 0.0       98.07 31   LegendNANA
15:00 26.7 18.2 59 0.0       98.08 33   LegendNANA
16:00 26.7 17.6 58 0.0       98.07 32   LegendNANA
17:00 25.6 18.0 63 0.0       98.07 32   LegendNANA
18:00 24.9 17.5 63 0.0       98.12 31   LegendNANA
19:00 23.4 17.3 68 0.0       98.14 29   LegendNANA
20:00 21.8 16.6 72 0.0       98.15 27   LegendNANA
21:00 20.3 17.2 82 0.0       98.18 26   LegendNANA
22:00 19.5 17.3 87 0.0       98.19     LegendNANA
23:00 19.0 16.9 88 0.0       98.21     LegendNANA

Notes on Data Quality.

Legend

  • E = Estimated
  • M = Missing
  • NA = Not Available*
  • [empty] = Indicates an unobserved value
Date modified: